Key West, FL NWLON current weather conditions

sailwx.info

Wind from 260 at 16 knots gusting 19

Last reported at 2019-Mar-22 05:48 UTC.
Time now 2019-Mar-22 06:33 UTC

Location: N 24°33' W 081°48'.
View on Google Maps.

See reports from other nearby stations

  
Tides and Currents Weather Stations Pressure Air Temp Water Temp Dewpoint Dewpoint Depression Visibility Wind Speed Wind Dir Waves Ship Positions
date/time (UTC)wind fromknots sea level pressurealtimeterstation pressurevisibilityair tempwater tempwave heightnotes
2019-Mar-22 05:48 260 16 gusting 19
2019-Mar-22 05:42 264 17 gusting 21
2019-Mar-22 05:36 264 15 gusting 19
2019-Mar-22 05:30 273 13 gusting 18
2019-Mar-22 05:24 268 16 gusting 19
2019-Mar-22 05:18 271 16 gusting 19
2019-Mar-22 05:12 270 14 gusting 18
2019-Mar-22 05:06 270 16 gusting 19
2019-Mar-22 05:00 268 15 gusting 19
2019-Mar-22 04:54 275 13 gusting 19
2019-Mar-22 04:48 266 16 gusting 19
2019-Mar-22 04:42 265 14 gusting 19
2019-Mar-22 04:36 273 15 gusting 19
2019-Mar-22 04:30 278 14 gusting 19
2019-Mar-22 04:24 271 16 gusting 19
2019-Mar-22 04:18 273 16 gusting 19
2019-Mar-22 04:12 264 13 gusting 18
2019-Mar-22 04:06 260 13 gusting 18
2019-Mar-22 04:00 275 15 gusting 18
2019-Mar-22 03:54 268 15 gusting 18
2019-Mar-22 03:18 276 16 gusting 21
2019-Mar-22 03:12 274 17 gusting 20
2019-Mar-22 03:06 266 15 gusting 20
2019-Mar-22 02:48 262 17 gusting 19
2019-Mar-22 02:42 266 13 gusting 20
2019-Mar-22 02:36 262 18 gusting 19
2019-Mar-22 02:30 273 17 gusting 19
2019-Mar-22 02:24 258 17 gusting 21
2019-Mar-22 01:48 271 14 gusting 18
2019-Mar-22 01:42 269 16 gusting 19
2019-Mar-22 01:36 273 15 gusting 19
2019-Mar-22 01:30 268 14 gusting 19
2019-Mar-22 01:24 269 14 gusting 19
2019-Mar-22 01:18 269 14 gusting 19
2019-Mar-22 01:12 269 17 gusting 22
2019-Mar-22 01:06 271 14 gusting 19
2019-Mar-22 00:30 271 16 gusting 20
2019-Mar-22 00:24 270 17 gusting 19
2019-Mar-22 00:18 276 15 gusting 21
2019-Mar-22 00:12 281 17 gusting 19
2019-Mar-21 23:36 275 16 gusting 19
2019-Mar-21 23:00 273 18 gusting 19
2019-Mar-21 22:54 269 16 gusting 21
2019-Mar-21 22:48 273 15 gusting 20
2019-Mar-21 22:42 268 14 gusting 19
2019-Mar-21 22:36 278 16 gusting 19
2019-Mar-21 22:30 268 16 gusting 19
2019-Mar-21 22:24 276 16 gusting 21
2019-Mar-21 22:18 273 18 gusting 21
2019-Mar-21 22:12 279 14 gusting 18
2019-Mar-21 22:06 275 15 gusting 19
2019-Mar-21 22:00 280 16 gusting 19
2019-Mar-21 21:54 281 16 gusting 20
2019-Mar-21 21:48 270 16 gusting 20
2019-Mar-21 21:42 274 19 gusting 20
2019-Mar-21 21:36 267 18 gusting 21
2019-Mar-21 21:30 268 16 gusting 19
2019-Mar-21 21:24 271 15 gusting 20
2019-Mar-21 21:18 264 18 gusting 21
2019-Mar-21 21:12 275 19 gusting 23
2019-Mar-21 21:06 264 18 gusting 21
2019-Mar-21 21:00 268 16 gusting 22
2019-Mar-21 20:54 272 17 gusting 22
2019-Mar-21 20:48 271 16 gusting 21
2019-Mar-21 20:42 275 19 gusting 22
2019-Mar-21 20:36 271 18 gusting 22
2019-Mar-21 20:30 269 18 gusting 22
2019-Mar-21 20:24 270 16 gusting 19
2019-Mar-21 20:18 269 19 gusting 20
2019-Mar-21 20:12 274 19 gusting 22
2019-Mar-21 20:06 275 17 gusting 21
2019-Mar-21 20:00 280 19 gusting 23
2019-Mar-21 19:54 282 18 gusting 22
2019-Mar-21 19:48 281 17 gusting 21
2019-Mar-21 19:42 284 17 gusting 21
2019-Mar-21 19:36 285 18 gusting 22
2019-Mar-21 19:30 283 16 gusting 19
2019-Mar-21 19:24 277 16 gusting 19
2019-Mar-21 19:18 285 18 gusting 21
2019-Mar-21 19:12 283 16 gusting 19
2019-Mar-21 19:06 281 16 gusting 19
2019-Mar-21 19:00 281 14 gusting 18
2019-Mar-21 18:54 285 15 gusting 18
2019-Mar-21 18:48 282 13 gusting 18
2019-Mar-21 18:42 276 14 gusting 18
2019-Mar-21 18:36 276 15 gusting 20
2019-Mar-21 18:30 276 16 gusting 20
2019-Mar-21 18:24 274 16 gusting 19
2019-Mar-21 18:18 273 18 gusting 20
2019-Mar-21 18:12 269 15 gusting 19
2019-Mar-21 18:06 275 16 gusting 19
2019-Mar-21 18:00 274 16 gusting 19
2019-Mar-21 17:54 276 13 gusting 17
2019-Mar-21 17:48 273 14 gusting 19
2019-Mar-21 17:42 273 17 gusting 19
2019-Mar-21 17:36 273 17 gusting 19
2019-Mar-21 17:30 273 15 gusting 18
2019-Mar-21 17:24 282 15 gusting 18
2019-Mar-21 17:18 278 14 gusting 17
2019-Mar-21 17:12 287 13 gusting 16
2019-Mar-21 17:06 291 14 gusting 19
2019-Mar-21 17:00 284 13 gusting 19
2019-Mar-21 16:54 282 13 gusting 17
2019-Mar-21 16:48 282 13 gusting 16
2019-Mar-21 16:42 285 13 gusting 16
2019-Mar-21 16:36 278 13 gusting 17
2019-Mar-21 16:30 274 14 gusting 17
2019-Mar-21 16:24 277 15 gusting 18
2019-Mar-21 16:18 275 14 gusting 18
2019-Mar-21 16:12 282 14 gusting 18
2019-Mar-21 16:06 283 15 gusting 18
2019-Mar-21 16:00 279 15 gusting 18
2019-Mar-21 15:54 289 14 gusting 18
2019-Mar-21 15:48 295 14 gusting 16
2019-Mar-21 15:42 293 13 gusting 17
2019-Mar-21 15:36 293 13 gusting 17
2019-Mar-21 15:30 299 14 gusting 17
2019-Mar-21 15:24 288 14 gusting 17
2019-Mar-21 15:18 279 14 gusting 17
2019-Mar-21 15:12 286 17 gusting 19
2019-Mar-21 15:06 280 14 gusting 17
2019-Mar-21 15:00 283 15 gusting 18
2019-Mar-21 14:54 282 14 gusting 17
2019-Mar-21 14:48 280 12 gusting 15
2019-Mar-21 14:42 283 14 gusting 16
2019-Mar-21 14:36 287 13 gusting 15
2019-Mar-21 14:30 285 12 gusting 15
2019-Mar-21 14:24 278 13 gusting 16
2019-Mar-21 14:18 279 13 gusting 16
2019-Mar-21 14:12 274 13 gusting 16
2019-Mar-21 14:06 280 13 gusting 15
2019-Mar-21 14:00 282 14 gusting 16
2019-Mar-21 13:54 279 13 gusting 16
2019-Mar-21 13:48 276 12 gusting 14
2019-Mar-21 13:42 273 13 gusting 15
2019-Mar-21 13:36 284 11 gusting 14
2019-Mar-21 13:30 283 13 gusting 15
2019-Mar-21 13:24 283 11 gusting 13
2019-Mar-21 13:18 272 12 gusting 15
2019-Mar-21 13:12 277 11 gusting 13
2019-Mar-21 13:06 269 10 gusting 13
2019-Mar-21 13:00 277 10 gusting 13
2019-Mar-21 12:54 281 10 gusting 11
2019-Mar-21 12:48 287 8 gusting 13
2019-Mar-21 12:42 276 11 gusting 13
2019-Mar-21 12:36 286 11 gusting 13
2019-Mar-21 12:30 279 11 gusting 14
2019-Mar-21 12:24 285 9 gusting 13
2019-Mar-21 12:18 277 12 gusting 13
2019-Mar-21 12:12 277 11 gusting 14
2019-Mar-21 12:06 276 12 gusting 13
2019-Mar-21 12:00 274 12 gusting 13
2019-Mar-21 11:54 279 11 gusting 14
2019-Mar-21 11:48 268 10 gusting 13
2019-Mar-21 11:42 274 12 gusting 13
2019-Mar-21 11:36 271 12 gusting 13
2019-Mar-21 11:30 277 11 gusting 13
2019-Mar-21 11:24 279 10 gusting 12
2019-Mar-21 11:18 285 9 gusting 11
2019-Mar-21 11:12 275 10 gusting 12
2019-Mar-21 11:06 282 8 gusting 10
2019-Mar-21 11:00 293 7 gusting 9
2019-Mar-21 10:54 281 8 gusting 10
2019-Mar-21 10:48 301 6 gusting 9
2019-Mar-21 10:42 318 6 gusting 9
2019-Mar-21 10:36 296 6 gusting 9
2019-Mar-21 10:30 286 7 gusting 10
2019-Mar-21 10:24 289 6 gusting 11
2019-Mar-21 10:18 317 6 gusting 9
2019-Mar-21 10:12 291 6 gusting 10
2019-Mar-21 10:06 326 6 gusting 9
2019-Mar-21 10:00 283 9 gusting 11
2019-Mar-21 09:54 322 6 gusting 11
2019-Mar-21 09:48 284 9 gusting 11
2019-Mar-21 09:42 294 7 gusting 11
2019-Mar-21 09:36 308 6 gusting 9
2019-Mar-21 09:30 281 7 gusting 11
2019-Mar-21 09:24 318 6 gusting 9
2019-Mar-21 09:18 293 7 gusting 11
2019-Mar-21 09:12 288 7 gusting 9
2019-Mar-21 09:06 320 5 gusting 8
2019-Mar-21 09:00 301 5 gusting 6
2019-Mar-21 08:54 353 6 gusting 7
2019-Mar-21 08:48 337 5 gusting 6
2019-Mar-21 08:42 357 4 gusting 6
2019-Mar-21 08:36 008 2 gusting 4
2019-Mar-21 08:30 334 4 gusting 7
2019-Mar-21 08:24 339 6 gusting 7
2019-Mar-21 08:18 011 4 gusting 8
2019-Mar-21 08:12 006 4 gusting 6
2019-Mar-21 08:06 351 5 gusting 7
2019-Mar-21 08:00 354 4 gusting 6
2019-Mar-21 07:54 015 4 gusting 7
2019-Mar-21 07:48 024 3 gusting 6
2019-Mar-21 07:42 031 4 gusting 7
2019-Mar-21 07:36 031 5 gusting 8
2019-Mar-21 07:30 009 4 gusting 7
2019-Mar-21 07:24 023 5 gusting 7
2019-Mar-21 07:18 014 3 gusting 8
2019-Mar-21 07:12 024 5 gusting 7
2019-Mar-21 07:06 017 6 gusting 9
2019-Mar-21 07:00 356 5 gusting 8
2019-Mar-21 06:54 015 6 gusting 7
2019-Mar-21 06:48 023 5 gusting 7
2019-Mar-21 06:42 020 6 gusting 10
2019-Mar-21 06:36 017 5 gusting 8
2019-Mar-21 06:30 026 6 gusting 9
2019-Mar-21 06:24 015 3 gusting 7
2019-Mar-21 06:18 027 6 gusting 8
2019-Mar-21 06:12 026 5 gusting 9
2019-Mar-21 06:06 022 6 gusting 8
2019-Mar-21 06:00 016 4 gusting 7
2019-Mar-21 05:54 002 4 gusting 7
2019-Mar-21 05:48 019 5 gusting 8
2019-Mar-21 05:42 028 6 gusting 10
2019-Mar-21 05:36 026 7 gusting 12
2019-Mar-21 05:30 005 6 gusting 10
2019-Mar-21 05:24 007 6 gusting 11
2019-Mar-21 05:18 016 5 gusting 11
2019-Mar-21 05:12 012 7 gusting 12
2019-Mar-21 05:06 023 5 gusting 9
2019-Mar-21 05:00 010 4 gusting 10
2019-Mar-21 04:54 031 4 gusting 5
2019-Mar-21 04:48 047 3 gusting 6
2019-Mar-21 04:42 039 3 gusting 7
2019-Mar-21 04:36 036 5 gusting 6
2019-Mar-21 04:30 030 5 gusting 7
2019-Mar-21 04:24 027 4 gusting 7
2019-Mar-21 04:18 035 3 gusting 6
2019-Mar-21 04:12 013 4 gusting 7
2019-Mar-21 04:06 355 4 gusting 6
2019-Mar-21 04:00 324 5 gusting 10
2019-Mar-21 03:54 326 4 gusting 10
2019-Mar-21 03:48 294 10 gusting 12
2019-Mar-21 03:42 273 11 gusting 13
2019-Mar-21 03:36 277 11 gusting 14
2019-Mar-21 03:30 276 11 gusting 14
2019-Mar-21 03:24 273 11 gusting 14
2019-Mar-21 03:18 277 11 gusting 15
2019-Mar-21 03:12 277 13 gusting 14
2019-Mar-21 03:06 285 11 gusting 13
2019-Mar-21 03:00 276 12 gusting 13
2019-Mar-21 02:54 277 13 gusting 13
2019-Mar-21 02:48 284 12 gusting 14
2019-Mar-21 02:42 281 11 gusting 14
2019-Mar-21 02:36 279 13 gusting 15
2019-Mar-21 02:30 286 13 gusting 16
2019-Mar-21 02:24 275 13 gusting 16
2019-Mar-21 02:18 276 13 gusting 14
2019-Mar-21 02:12 282 12 gusting 14
2019-Mar-21 02:06 274 13 gusting 14
2019-Mar-21 02:00 277 13 gusting 14
2019-Mar-21 01:54 280 12 gusting 15
2019-Mar-21 01:48 268 13 gusting 15
2019-Mar-21 01:42 272 13 gusting 15
2019-Mar-21 01:36 272 11 gusting 14
2019-Mar-21 01:30 274 10 gusting 13
2019-Mar-21 01:24 271 12 gusting 13
2019-Mar-21 01:18 271 12 gusting 13
2019-Mar-21 01:12 274 9 gusting 11
2019-Mar-21 01:06 270 10 gusting 13
2019-Mar-21 01:00 268 10 gusting 13
2019-Mar-21 00:54 267 10 gusting 13
2019-Mar-21 00:48 258 11 gusting 12
2019-Mar-21 00:42 271 9 gusting 11
2019-Mar-21 00:36 266 9 gusting 11
2019-Mar-21 00:30 256 10 gusting 12
2019-Mar-21 00:24 267 10 gusting 12
2019-Mar-21 00:18 270 12 gusting 13
2019-Mar-21 00:12 267 10 gusting 13
2019-Mar-21 00:06 273 9 gusting 13
2019-Mar-20 23:48 278 10 gusting 11
2019-Mar-20 23:42 276 10 gusting 13
2019-Mar-20 23:36 270 9 gusting 12
2019-Mar-20 23:30 286 10 gusting 12
2019-Mar-20 23:24 280 9 gusting 11
2019-Mar-20 23:18 272 9 gusting 13
2019-Mar-20 23:12 276 10 gusting 13
2019-Mar-20 23:06 280 9 gusting 12
2019-Mar-20 23:00 268 10 gusting 12
2019-Mar-20 22:54 283 10 gusting 12
2019-Mar-20 22:48 288 10 gusting 12
2019-Mar-20 22:42 286 9 gusting 13
2019-Mar-20 22:36 287 10 gusting 13
2019-Mar-20 22:30 289 11 gusting 13
2019-Mar-20 22:24 288 11 gusting 13
2019-Mar-20 22:18 281 11 gusting 13
2019-Mar-20 22:12 287 11 gusting 13
2019-Mar-20 22:06 289 12 gusting 13
2019-Mar-20 22:00 292 11 gusting 13
2019-Mar-20 21:54 289 10 gusting 14
2019-Mar-20 21:48 279 13 gusting 14
2019-Mar-20 21:42 293 11 gusting 13
2019-Mar-20 21:36 285 11 gusting 14
2019-Mar-20 21:30 288 11 gusting 14
2019-Mar-20 21:24 289 13 gusting 15
2019-Mar-20 21:18 270 10 gusting 16
2019-Mar-20 21:12 285 13 gusting 16
2019-Mar-20 21:06 287 13 gusting 17
2019-Mar-20 21:00 287 13 gusting 16
2019-Mar-20 20:54 284 13 gusting 17
2019-Mar-20 20:48 289 13 gusting 17
2019-Mar-20 20:42 286 16 gusting 18
2019-Mar-20 20:36 286 14 gusting 17
2019-Mar-20 20:30 289 15 gusting 18
2019-Mar-20 20:24 287 14 gusting 17
2019-Mar-20 20:18 291 16 gusting 18
2019-Mar-20 20:12 291 14 gusting 18
2019-Mar-20 20:06 288 14 gusting 18
2019-Mar-20 20:00 286 14 gusting 18
2019-Mar-20 19:54 288 15 gusting 19
2019-Mar-20 19:48 286 14 gusting 17
2019-Mar-20 19:42 289 14 gusting 17
2019-Mar-20 19:36 287 16 gusting 19
2019-Mar-20 19:30 290 15 gusting 17
2019-Mar-20 19:24 288 13 gusting 18
2019-Mar-20 19:18 292 13 gusting 16
2019-Mar-20 19:12 286 16 gusting 18
2019-Mar-20 19:06 286 14 gusting 19
2019-Mar-20 19:00 288 15 gusting 19
2019-Mar-20 18:54 292 14 gusting 17
2019-Mar-20 18:48 287 15 gusting 18
2019-Mar-20 18:42 285 14 gusting 17
2019-Mar-20 18:36 284 14 gusting 18
2019-Mar-20 18:30 286 14 gusting 17
2019-Mar-20 18:24 289 14 gusting 16
2019-Mar-20 18:18 288 14 gusting 17
2019-Mar-20 18:12 294 15 gusting 17
2019-Mar-20 18:06 292 14 gusting 17
2019-Mar-20 18:00 285 15 gusting 18
2019-Mar-20 17:54 289 15 gusting 18
2019-Mar-20 17:48 284 16 gusting 19
2019-Mar-20 17:42 290 15 gusting 19
2019-Mar-20 17:36 284 16 gusting 18
2019-Mar-20 17:30 287 14 gusting 17
2019-Mar-20 17:24 286 15 gusting 17
2019-Mar-20 17:18 288 13 gusting 16
2019-Mar-20 17:12 284 14 gusting 16
2019-Mar-20 17:06 297 13 gusting 18
2019-Mar-20 17:00 289 13 gusting 16
2019-Mar-20 16:54 285 13 gusting 18
2019-Mar-20 16:48 286 13 gusting 17
2019-Mar-20 16:42 300 13 gusting 17
2019-Mar-20 16:36 293 14 gusting 17
2019-Mar-20 16:30 291 16 gusting 18
2019-Mar-20 16:24 297 13 gusting 16
2019-Mar-20 16:18 326 11 gusting 14
2019-Mar-20 16:12 292 14 gusting 17
2019-Mar-20 16:06 305 11 gusting 16
2019-Mar-20 16:00 298 13 gusting 16
2019-Mar-20 15:54 298 14 gusting 17
2019-Mar-20 15:48 294 13 gusting 16
2019-Mar-20 15:42 296 13 gusting 18
2019-Mar-20 15:36 305 12 gusting 16
2019-Mar-20 15:30 316 11 gusting 15
2019-Mar-20 15:24 303 13 gusting 18
2019-Mar-20 15:18 315 12 gusting 16
2019-Mar-20 15:12 292 14 gusting 18
2019-Mar-20 15:06 314 11 gusting 17
2019-Mar-20 15:00 298 13 gusting 17
2019-Mar-20 14:54 313 10 gusting 15
2019-Mar-20 14:48 296 12 gusting 14
2019-Mar-20 14:42 302 10 gusting 14
2019-Mar-20 14:36 298 12 gusting 14
2019-Mar-20 14:30 300 13 gusting 14
2019-Mar-20 14:24 313 9 gusting 13
2019-Mar-20 14:18 310 9 gusting 13
2019-Mar-20 14:12 320 8 gusting 13
2019-Mar-20 14:06 311 9 gusting 13
2019-Mar-20 14:00 347 8 gusting 15
2019-Mar-20 13:54 320 9 gusting 15
2019-Mar-20 13:48 328 10 gusting 14
2019-Mar-20 13:42 304 12 gusting 16
2019-Mar-20 13:36 305 12 gusting 16
2019-Mar-20 13:30 309 9 gusting 13
2019-Mar-20 13:24 303 11 gusting 14
2019-Mar-20 13:18 313 9 gusting 13
2019-Mar-20 13:12 306 12 gusting 15
2019-Mar-20 13:06 296 11 gusting 13
2019-Mar-20 13:00 346 7 gusting 13
2019-Mar-20 12:54 305 9 gusting 13
2019-Mar-20 12:48 320 11 gusting 16
2019-Mar-20 12:42 316 8 gusting 11
2019-Mar-20 12:36 334 8 gusting 15
2019-Mar-20 12:30 334 8 gusting 13
2019-Mar-20 12:24 321 9 gusting 14
2019-Mar-20 12:18 321 9 gusting 13
2019-Mar-20 12:12 354 8 gusting 12
2019-Mar-20 12:06 324 8 gusting 12
2019-Mar-20 12:00 334 6 gusting 11
2019-Mar-20 11:54 005 7 gusting 11
2019-Mar-20 11:48 007 6 gusting 11
2019-Mar-20 11:42 001 6 gusting 10
2019-Mar-20 11:36 338 6 gusting 12
2019-Mar-20 11:30 012 6 gusting 11
2019-Mar-20 11:24 009 8 gusting 13
2019-Mar-20 11:18 007 7 gusting 11
2019-Mar-20 11:12 016 6 gusting 11
2019-Mar-20 11:06 003 6 gusting 13
2019-Mar-20 11:00 358 6 gusting 11
2019-Mar-20 10:54 004 6 gusting 12
2019-Mar-20 10:48 014 6 gusting 12
2019-Mar-20 10:42 360 7 gusting 12
2019-Mar-20 10:36 011 6 gusting 12
2019-Mar-20 10:30 012 9 gusting 13
2019-Mar-20 10:24 007 9 gusting 13
2019-Mar-20 10:18 012 8 gusting 13
2019-Mar-20 10:12 010 6 gusting 11
2019-Mar-20 10:06 010 9 gusting 13
2019-Mar-20 10:00 007 8 gusting 13
2019-Mar-20 09:54 013 6 gusting 13
2019-Mar-20 09:48 008 6 gusting 13
2019-Mar-20 09:42 014 7 gusting 12
2019-Mar-20 09:36 022 7 gusting 14
2019-Mar-20 09:30 007 6 gusting 12
2019-Mar-20 09:24 018 7 gusting 13
2019-Mar-20 09:18 029 6 gusting 11
2019-Mar-20 09:12 013 6 gusting 9
2019-Mar-20 09:06 036 6 gusting 10
2019-Mar-20 09:00 033 7 gusting 10
2019-Mar-20 08:54 030 6 gusting 10
2019-Mar-20 08:48 031 5 gusting 8
2019-Mar-20 08:42 032 5 gusting 9
2019-Mar-20 08:36 024 5 gusting 9
2019-Mar-20 08:30 048 3 gusting 7
2019-Mar-20 08:24 038 5 gusting 7
2019-Mar-20 08:18 038 6 gusting 9
2019-Mar-20 08:12 030 6 gusting 10
2019-Mar-20 08:06 027 7 gusting 12
2019-Mar-20 08:00 026 6 gusting 7
2019-Mar-20 07:54 036 5 gusting 6
2019-Mar-20 07:48 035 4 gusting 8
2019-Mar-20 07:42 039 7 gusting 13
2019-Mar-20 07:36 027 6 gusting 9
2019-Mar-20 07:30 040 6 gusting 11
2019-Mar-20 07:24 062 6 gusting 11
2019-Mar-20 07:18 053 4 gusting 9
2019-Mar-20 07:12 052 3 gusting 7
2019-Mar-20 07:06 043 5 gusting 7
2019-Mar-20 07:00 034 7 gusting 13
2019-Mar-20 06:54 034 6 gusting 10
2019-Mar-20 06:48 038 7 gusting 14
2019-Mar-20 06:42 043 5 gusting 9
2019-Mar-20 06:36 025 6 gusting 13
2019-Mar-20 06:30 047 7 gusting 12
2019-Mar-20 06:24 038 8 gusting 13
2019-Mar-20 06:18 041 8 gusting 14
2019-Mar-20 06:12 039 7 gusting 11
2019-Mar-20 06:06 037 7 gusting 13
2019-Mar-20 06:00 033 8 gusting 14